Погода в Пхеньяне

Северная Корея     39°01′09″N   125°45′15″E
темп.,
°C
ветер,
м/с
пор.,
м/с
влажн.,
%
обл.,
%
осадки,
мм/ч
давл.,
гПа
погр.,
м
14 мая, пт
пт1400:00+17ссз12810 0.0 101234
03:00+16с118632 0.0 101313
06:00+16всв1187100 0.0 101316
09:00+21в1165100 0.0 1013419
12:00+26ююв2246100 0.0 10111094
15:00+28ю3339100 0.0 10091682
18:00+27юз4547100 0.0 1009879
21:00+20сз1267100 0.0 101071
15 мая, сб
сб1500:00+19ссв1268100 0.0 101042
03:00+18с117398 0.0 100920
06:00+18всв127878 0.0 100934
09:00+19в1274100 0.0 1009134
12:00+22всв116299 0.0 1008386
15:00+25ю325577 0.0 10061063
18:00+23ююз3264100 0.0 1005593
21:00+20юз2274100 0.0 1006114
16 мая, вс
вс1600:00+20ююв017498 0.0 100666
03:00+19юв1178100 0.0 100560
06:00+19св1282100 0.0 100554
09:00+21всв4569100 0.0 1005523
12:00+18всв5768100 0.0 1005399
15:00+17всв5764100 0.0 1004410
18:00+17всв4660100 0.0 1005388
21:00+16всв3655100 0.0 1006278
17 мая, пн
пн1700:00+15св2354100 0.0 1005138
03:00+13всв2674100 1.0 1004358
06:00+12всв51176100 1.9 1005555
09:00+12всв61385100 7.1 1006712
12:00+13св51175100 0.9 1006733
15:00+12св4987100 3.3 1007557
18:00+12ссв4890100 2.9 1008438
21:00+12в1387100 3.4 1009110
18 мая, вт
вт1800:00+12ссв11896 0.0 101013
03:00+10ссв11905 0.0 101013
06:00+10юв11910 0.0 101122
09:00+16ю22710 0.0 1012464
12:00+22ю34450 0.0 10111011
15:00+26юз46313 0.0 10091680
18:00+22ююз68480 0.0 1010691
21:00+16ююв49700 0.0 1012245